Home   Weather   47°48'N, 122°14'W   Past weeks
Flag for USA

Past Weather in 47°48'N, 122°14'W, USA — Yesterday and Last 2 Weeks

Now
56 °F

Mostly cloudy.


Feels Like: 54 °F
Forecast: 58 / 52 °F
Wind: 9 mph from South

Location: Seattle Boeing Field

Current Time: May 20, 2019 at 5:45:35 am

Latest Report: May 20, 2019 at 4:53 am


Visibility: 10 mi

Pressure: 29.78 "Hg

Humidity: 75%

Dew Point: 48 °F

Location of 47°48'N, 122°14'WLocation

Past Weather in 47°48'N, 122°14'W — Graph

°F

47°48'N, 122°14'W Temperature Yesterday

Maximum temperature yesterday: 70 °F (at 3:53 pm)
Minimum temperature yesterday: 55 °F (at 5:53 am)
Average temperature yesterday: 62 °F

High & Low Weather Summary for the Past Weeks

 TemperatureHumidityPressure
High83 °F (May 10, 3:53 pm)90% (May 16, 3:53 am)30.22 "Hg (May 16, 3:53 am)
Low49 °F (May 5, 5:53 am)18% (May 9, 4:53 pm)29.53 "Hg (May 16, 6:11 am)
Average61 °F60%29.89 "Hg
* Reported May 5 3:53 am — May 20 3:53 am, 47°48'N, 122°14'W. Weather by CustomWeather, © 2019

Note: Actual official high and low records may vary slightly from our data, if they occured in-between our weather recording intervals... More about our weather records

Advertising

47°48'N, 122°14'W Weather History for the Previous 24 Hours

Scroll right to see more
 ConditionsComfort  
Time TempWeatherWind HumidityBarometerVisibility
3:53 am
Mon, May 20
56 °FMostly cloudy.7 mph77%29.77 "Hg10 mi
2:53 am56 °FOvercast.5 mph77%29.77 "Hg10 mi
1:53 am57 °FMostly cloudy.7 mph78%29.78 "Hg10 mi
12:53 am58 °FMostly cloudy.7 mph78%29.77 "Hg10 mi
12:38 am58 °FMostly cloudy.6 mph78%29.77 "Hg10 mi
12:20 am59 °FMostly cloudy.6 mph75%29.77 "Hg10 mi
11:53 pm
Sun, May 19
59 °FPassing clouds.3 mph75%29.77 "Hg10 mi
10:53 pm60 °FPassing clouds.No wind65%29.77 "Hg10 mi
9:53 pm60 °FPartly cloudy.3 mph65%29.75 "Hg10 mi
8:53 pm64 °FPassing clouds.3 mph61%29.73 "Hg10 mi
7:53 pm67 °FPartly sunny.3 mph49%29.72 "Hg10 mi
6:53 pm68 °FPartly sunny.6 mph49%29.71 "Hg10 mi
5:53 pm69 °FPartly sunny.7 mph49%29.70 "Hg10 mi
4:53 pm70 °FScattered clouds.7 mph42%29.71 "Hg10 mi
3:53 pm70 °FScattered clouds.N/A41%29.71 "Hg10 mi
2:53 pm69 °FScattered clouds.5 mph42%29.71 "Hg10 mi
1:53 pm68 °FPartly sunny.6 mph47%29.72 "Hg10 mi
12:53 pm66 °FPartly sunny.5 mph50%29.73 "Hg10 mi
11:53 am63 °FPartly sunny.3 mph58%29.74 "Hg10 mi
10:53 am61 °FPartly sunny.No wind62%29.74 "Hg10 mi
9:53 am60 °FOvercast.3 mph62%29.74 "Hg10 mi
8:53 am58 °FPassing clouds.6 mph70%29.74 "Hg10 mi
7:53 am58 °FMore clouds than sun.No wind67%29.73 "Hg10 mi
6:53 am57 °FScattered clouds.No wind69%29.72 "Hg10 mi
5:53 am55 °FMostly cloudy.3 mph80%29.70 "Hg10 mi
Weather by CustomWeather, © 2019

See weather overview